• în România
  • Lista ţărilor
  • Pe 7 zile
  • Temperatura apei
  • Hartă satelitară
  • Meteo pe hartă
  • Widget-uri
  • user-avatar
    Intrare

    Meteo pe oră la Kitzbuhel

    Astăzi, 30 Martie, Joi

    Timp Temperatura Precipitaţii Vânt Presiune Umiditate
    00:00 +6°C° 0 mm 1 m/s 682 mmHg 93%
    01:00 +6°C° 0 mm 1 m/s 682 mmHg 92%
    02:00 +6°C° 0 mm 1 m/s 682 mmHg 93%
    03:00 +6°C° 0 mm 1 m/s 682 mmHg 93%
    04:00 +6°C° 0 mm 1 m/s 682 mmHg 93%
    05:00 +6°C° 0 mm 1 m/s 683 mmHg 92%
    06:00 +7°C° 0 mm 1 m/s 683 mmHg 92%
    07:00 +7°C° 0 mm 1 m/s 683 mmHg 91%
    08:00 +9°C° 0 mm 1 m/s 683 mmHg 84%
    09:00 +10°C° 0 mm 0 m/s 683 mmHg 77%
    10:00 +12°C° 0 mm 0 m/s 684 mmHg 71%
    11:00 +13°C° 0 mm 0 m/s 684 mmHg 67%
    12:00 +14°C° 0 mm 0 m/s 684 mmHg 63%
    13:00 +16°C° 0 mm 1 m/s 684 mmHg 60%
    14:00 +16°C° 0 mm 1 m/s 683 mmHg 61%
    15:00 +16°C° 0 mm 1 m/s 683 mmHg 63%
    16:00 +15°C° 0 mm 1 m/s 683 mmHg 65%
    17:00 +13°C° 0 mm 1 m/s 682 mmHg 74%
    18:00 +10°C° 0 mm 1 m/s 682 mmHg 83%
    19:00 +7°C° 0 mm 1 m/s 681 mmHg 92%
    20:00 +7°C° 0 mm 1 m/s 681 mmHg 91%
    21:00 +7°C° 0 mm 1 m/s 681 mmHg 90%
    22:00 +7°C° 0 mm 2 m/s 682 mmHg 89%
    23:00 +6°C° 0 mm 2 m/s 682 mmHg 88%

    Mâine, 31 Martie, Vineri

    Timp Temperatura Precipitaţii Vânt Presiune Umiditate
    00:00 +6°C° 0 mm 2 m/s 682 mmHg 87%
    01:00 +6°C° 0 mm 2 m/s 681 mmHg 86%
    02:00 +6°C° 0 mm 2 m/s 681 mmHg 87%
    03:00 +5°C° 0 mm 2 m/s 681 mmHg 87%
    04:00 +5°C° 0 mm 2 m/s 680 mmHg 87%
    05:00 +6°C° 0 mm 2 m/s 680 mmHg 86%
    06:00 +6°C° 0 mm 2 m/s 680 mmHg 86%
    07:00 +7°C° 0 mm 2 m/s 680 mmHg 85%
    08:00 +9°C° 0 mm 2 m/s 680 mmHg 78%
    09:00 +12°C° 0 mm 2 m/s 681 mmHg 70%
    10:00 +15°C° 0 mm 1 m/s 681 mmHg 63%
    11:00 +16°C° 0 mm 1 m/s 680 mmHg 59%
    12:00 +18°C° 0 mm 1 m/s 680 mmHg 56%
    13:00 +19°C° 0 mm 1 m/s 680 mmHg 52%
    14:00 +18°C° 0 mm 2 m/s 679 mmHg 55%
    15:00 +17°C° 0 mm 2 m/s 679 mmHg 58%
    16:00 +17°C° 0 mm 2 m/s 678 mmHg 61%
    17:00 +14°C° 0 mm 2 m/s 678 mmHg 72%
    18:00 +12°C° 0 mm 2 m/s 677 mmHg 82%
    19:00 +8°C° 0 mm 2 m/s 676 mmHg 92%
    20:00 +8°C° 0 mm 2 m/s 676 mmHg 91%
    21:00 +8°C° 0 mm 2 m/s 676 mmHg 90%
    22:00 +7°C° 0 mm 2 m/s 676 mmHg 90%
    23:00 +7°C° 0 mm 2 m/s 676 mmHg 89%

    Poimâine, 1 Aprilie, Sâmbătă

    Timp Temperatura Precipitaţii Vânt Presiune Umiditate
    00:00 +7°C° 0 mm 2 m/s 676 mmHg 89%
    01:00 +6°C° 0 mm 2 m/s 676 mmHg 89%
    02:00 +6°C° 0 mm 2 m/s 675 mmHg 89%
    03:00 +6°C° 0 mm 2 m/s 675 mmHg 89%
    04:00 +6°C° 0 mm 2 m/s 675 mmHg 89%
    05:00 +6°C° 0 mm 2 m/s 675 mmHg 88%
    06:00 +6°C° 0 mm 2 m/s 675 mmHg 87%
    07:00 +6°C° 0 mm 2 m/s 675 mmHg 86%
    08:00 +9°C° 0 mm 2 m/s 675 mmHg 78%
    09:00 +12°C° 0 mm 2 m/s 675 mmHg 70%
    10:00 +14°C° 0 mm 2 m/s 676 mmHg 62%
    11:00 +15°C° 0 mm 2 m/s 676 mmHg 59%
    12:00 +16°C° 0 mm 2 m/s 675 mmHg 55%
    13:00 +17°C° 0 mm 2 m/s 675 mmHg 52%
    14:00 +16°C° 0,2 mm 2 m/s 675 mmHg 55%
    15:00 +16°C° 0,2 mm 2 m/s 675 mmHg 58%
    16:00 +16°C° 0,2 mm 2 m/s 674 mmHg 61%
    17:00 +13°C° 0,3 mm 2 m/s 674 mmHg 71%
    18:00 +10°C° 0,3 mm 2 m/s 674 mmHg 81%
    19:00 +8°C° 0,3 mm 1 m/s 674 mmHg 91%
    20:00 +7°C° 0,1 mm 2 m/s 674 mmHg 91%
    21:00 +6°C° 0,1 mm 2 m/s 675 mmHg 90%
    22:00 +6°C° 0,1 mm 2 m/s 675 mmHg 90%
    23:00 +6°C° 0 mm 2 m/s 675 mmHg 90%

    2 Aprilie, Duminică

    Timp Temperatura Precipitaţii Vânt Presiune Umiditate
    00:00 +5°C° 0 mm 2 m/s 676 mmHg 90%
    01:00 +5°C° 0 mm 2 m/s 676 mmHg 90%
    02:00 +5°C° 0 mm 2 m/s 676 mmHg 91%
    03:00 +5°C° 0 mm 1 m/s 676 mmHg 91%
    04:00 +5°C° 0 mm 1 m/s 676 mmHg 91%
    05:00 +6°C° 0 mm 1 m/s 677 mmHg 88%
    06:00 +7°C° 0 mm 1 m/s 677 mmHg 84%
    07:00 +8°C° 0 mm 1 m/s 678 mmHg 80%
    08:00 +9°C° 0 mm 1 m/s 678 mmHg 77%
    09:00 +11°C° 0 mm 1 m/s 679 mmHg 73%
    10:00 +12°C° 0 mm 1 m/s 679 mmHg 70%
    11:00 +13°C° 0,1 mm 1 m/s 679 mmHg 68%
    12:00 +14°C° 0,1 mm 1 m/s 679 mmHg 66%
    13:00 +15°C° 0,1 mm 1 m/s 679 mmHg 64%
    14:00 +14°C° 0,3 mm 1 m/s 679 mmHg 67%
    15:00 +14°C° 0,3 mm 1 m/s 679 mmHg 69%
    16:00 +14°C° 0,3 mm 1 m/s 679 mmHg 72%
    17:00 +12°C° 0,2 mm 1 m/s 679 mmHg 80%
    18:00 +10°C° 0,2 mm 1 m/s 679 mmHg 88%
    19:00 +7°C° 0,2 mm 0 m/s 679 mmHg 95%
    20:00 +8°C° 0,2 mm 1 m/s 679 mmHg 96%
    21:00 +8°C° 0,2 mm 1 m/s 680 mmHg 97%
    22:00 +8°C° 0,2 mm 1 m/s 680 mmHg 97%
    23:00 +8°C° 0 mm 1 m/s 680 mmHg 97%

    3 Aprilie, Luni

    Timp Temperatura Precipitaţii Vânt Presiune Umiditate
    00:00 +8°C° 0 mm 1 m/s 680 mmHg 98%
    01:00 +7°C° 0 mm 1 m/s 680 mmHg 98%
    02:00 +7°C° 0 mm 1 m/s 680 mmHg 98%
    03:00 +7°C° 0 mm 1 m/s 680 mmHg 98%
    04:00 +7°C° 0 mm 1 m/s 681 mmHg 98%
    05:00 +7°C° 0,1 mm 1 m/s 681 mmHg 97%
    06:00 +8°C° 0,1 mm 1 m/s 681 mmHg 96%
    07:00 +8°C° 0,1 mm 1 m/s 681 mmHg 95%
    08:00 +9°C° 0,1 mm 1 m/s 682 mmHg 91%
    09:00 +10°C° 0,1 mm 1 m/s 682 mmHg 88%
    10:00 +11°C° 0,1 mm 1 m/s 682 mmHg 84%
    11:00 +10°C° 0,2 mm 2 m/s 682 mmHg 82%
    12:00 +12°C° 0,2 mm 2 m/s 682 mmHg 80%
    13:00 +12°C° 0,2 mm 2 m/s 682 mmHg 78%
    14:00 +12°C° 0,2 mm 2 m/s 682 mmHg 80%
    15:00 +12°C° 0,2 mm 2 m/s 682 mmHg 81%
    16:00 +12°C° 0,2 mm 2 m/s 681 mmHg 82%
    17:00 +10°C° 0,2 mm 2 m/s 681 mmHg 87%
    18:00 +9°C° 0,2 mm 1 m/s 681 mmHg 92%
    19:00 +8°C° 0,2 mm 1 m/s 681 mmHg 96%
    20:00 +8°C° 0,1 mm 1 m/s 681 mmHg 96%
    21:00 +7°C° 0,1 mm 1 m/s 682 mmHg 96%
    22:00 +7°C° 0,1 mm 1 m/s 682 mmHg 96%
    23:00 +7°C° 0,1 mm 1 m/s 682 mmHg 96%

    4 Aprilie, Marţi

    Timp Temperatura Precipitaţii Vânt Presiune Umiditate
    00:00 +7°C° 0,1 mm 1 m/s 682 mmHg 96%
    01:00 +7°C° 0,1 mm 1 m/s 682 mmHg 96%
    02:00 +6°C° 0,1 mm 1 m/s 682 mmHg 96%
    03:00 +6°C° 0,1 mm 1 m/s 682 mmHg 97%
    04:00 +6°C° 0,1 mm 1 m/s 681 mmHg 97%
    05:00 +6°C° 0,1 mm 1 m/s 681 mmHg 96%
    06:00 +7°C° 0,1 mm 1 m/s 682 mmHg 95%
    07:00 +7°C° 0,1 mm 1 m/s 682 mmHg 93%
    08:00 +7°C° 0,1 mm 2 m/s 682 mmHg 88%
    09:00 +8°C° 0,1 mm 2 m/s 682 mmHg 82%
    10:00 +9°C° 0,1 mm 2 m/s 682 mmHg 76%
    11:00 +10°C° 0,1 mm 2 m/s 682 mmHg 73%
    12:00 +10°C° 0,1 mm 2 m/s 681 mmHg 70%
    13:00 +12°C° 0,1 mm 2 m/s 681 mmHg 67%
    14:00 +10°C° 0 mm 2 m/s 681 mmHg 68%
    15:00 +10°C° 0 mm 2 m/s 681 mmHg 70%
    16:00 +10°C° 0 mm 2 m/s 681 mmHg 71%
    17:00 +8°C° 0 mm 2 m/s 680 mmHg 78%
    18:00 +7°C° 0 mm 2 m/s 680 mmHg 86%
    19:00 +6°C° 0 mm 1 m/s 680 mmHg 93%
    20:00 +6°C° 0 mm 1 m/s 680 mmHg 94%
    21:00 +5°C° 0 mm 1 m/s 681 mmHg 94%
    22:00 +5°C° 0 mm 1 m/s 681 mmHg 95%
    23:00 +5°C° 0 mm 1 m/s 681 mmHg 95%
    Arată mai mult